Vorticity
nan nan nan nan nan nan nan nan nan nan nan nan nan nan nan nan nan nan nan nan nan nan nan nan nan nan nan nan nan nan nan nan nan nan nan nan nan nan nan nan nan nan nan nan nan
nan 7 7 8 7 7 7 7 7 7 7 7 7 6 7 10 18 15 13 8 8 7 5 6 5 7 6 10 8 9 8 10 15 15 -1 -3 5 7 1 3 5 16 16 9 nan
nan 7 7 7 7 7 7 8 7 7 7 7 7 7 7 12 18 20 10 6 5 5 1 4 11 9 6 11 3 8 15 15 13 5 -1 7 1 3 20 3 -3 7 4 4 nan
nan 7 7 7 8 8 8 7 7 7 7 8 8 8 11 13 11 14 11 6 4 7 6 10 12 6 8 -0 9 13 5 10 14 5 7 10 1 7 15 0 10 14 6 5 nan
nan 7 8 7 7 7 7 7 7 8 9 9 8 10 15 8 11 12 10 7 6 7 8 8 8 4 10 6 11 2 4 10 7 8 7 2 6 14 8 18 16 6 5 8 nan
nan 7 7 7 7 8 8 8 8 9 10 10 9 11 11 5 12 12 8 5 6 4 5 9 7 5 5 8 9 7 5 10 8 10 9 5 4 12 3 13 14 5 4 7 nan
nan 8 7 7 8 8 8 8 10 12 12 12 11 9 6 13 7 9 8 7 8 5 4 6 5 11 6 16 11 3 8 -1 9 6 9 12 5 5 -4 9 19 5 9 4 nan
nan 8 7 7 8 8 9 10 12 14 15 14 10 7 8 12 8 9 4 5 10 7 6 10 11 6 7 9 6 1 7 9 11 6 9 6 -2 -0 12 13 17 11 6 7 nan
nan 6 8 7 7 9 9 12 17 15 16 10 7 6 9 6 11 8 8 6 7 8 5 6 13 13 9 7 7 11 1 2 7 12 9 5 8 13 2 -0 12 11 3 9 nan
nan 8 7 6 7 10 16 19 14 17 13 2 10 10 17 11 11 8 4 7 9 9 7 7 10 10 10 7 5 11 10 15 13 6 6 6 6 10 6 8 5 -0 14 13 nan
nan 9 8 8 8 9 21 21 16 11 4 6 10 8 7 8 11 11 11 7 7 8 10 10 5 9 8 0 1 7 13 9 13 8 6 8 10 11 12 5 5 4 7 7 nan
nan 7 9 7 8 18 17 -0 3 7 22 17 -6 9 12 10 3 13 10 7 10 7 10 3 4 9 8 8 12 3 0 5 9 7 1 10 16 9 11 9 3 5 6 7 nan
nan 6 7 8 23 26 5 4 1 14 19 22 12 13 8 2 12 14 5 6 8 10 8 1 12 16 7 8 9 8 10 8 5 6 3 11 11 19 15 10 9 8 4 3 nan
nan 7 4 21 21 11 19 11 5 9 19 18 6 13 9 7 14 11 12 8 4 9 11 11 9 10 12 13 7 8 12 5 5 3 9 11 9 19 17 9 10 12 5 5 nan
nan 8 16 17 12 4 6 6 10 10 15 16 8 7 7 8 9 11 8 3 8 11 11 8 10 8 7 7 5 3 4 16 10 3 12 2 -3 15 21 10 14 11 4 9 nan
nan 7 18 19 11 2 -0 11 13 10 17 10 9 6 6 11 3 7 7 5 11 13 8 6 11 10 10 7 8 8 7 8 8 11 14 11 6 10 20 15 16 13 13 11 nan
nan 10 11 11 1 7 20 14 10 4 9 17 8 9 5 12 4 6 10 7 10 10 8 13 5 6 10 10 11 9 7 7 11 13 -1 16 23 13 14 17 17 16 4 9 nan
nan 23 23 10 9 4 9 12 8 6 2 9 15 7 6 10 7 10 5 5 5 6 16 15 18 14 7 8 8 7 5 6 3 1 7 10 15 17 8 10 7 6 21 22 nan
nan 29 11 11 14 9 14 8 4 -3 12 8 5 7 12 -0 10 13 5 12 14 6 3 17 19 14 10 12 5 7 16 4 5 3 14 10 5 2 5 9 7 23 37 11 nan
nan 17 23 22 13 8 9 9 5 -2 1 10 7 8 10 5 7 7 11 14 7 10 5 10 14 12 8 6 9 8 4 20 15 10 11 8 5 -0 0 3 17 29 17 11 nan
nan 10 21 20 6 9 11 9 -0 1 16 12 12 6 6 10 14 1 7 15 12 7 3 6 14 8 8 9 13 13 2 3 5 11 11 15 10 1 1 5 12 8 20 18 nan
nan 12 11 6 5 8 11 5 3 11 12 8 7 10 15 11 6 7 8 12 12 5 12 10 12 10 4 8 13 6 7 8 13 7 5 11 15 11 2 7 12 1 2 19 nan
nan 15 11 6 7 7 7 10 10 9 7 10 5 12 9 10 8 11 10 11 6 3 10 15 14 11 8 9 10 7 9 3 4 15 16 9 5 13 11 6 9 12 2 11 nan
nan 17 11 7 8 7 13 13 9 8 15 5 10 8 7 10 7 6 9 5 4 9 5 10 6 6 5 5 12 12 7 7 9 4 6 5 15 17 8 8 7 12 17 3 nan
nan 4 9 13 14 12 9 8 14 20 6 6 12 9 5 9 7 5 10 9 5 10 2 7 10 8 6 4 6 6 10 10 8 9 7 -0 7 19 16 8 13 19 14 8 nan
nan 6 8 9 5 17 21 10 10 17 9 14 9 11 6 7 5 10 11 0 11 11 4 8 5 7 10 11 11 11 10 22 14 5 14 8 9 20 6 10 5 15 21 22 nan
nan nan nan nan nan nan nan nan nan nan nan nan nan nan nan nan nan nan nan nan nan nan nan nan nan nan nan nan nan nan nan nan nan nan nan nan nan nan nan nan nan nan nan nan nan
CAPE
0 0 0 0 1 1 2 2 1 2 2 1 1 0 0 1 0 0 0 0 0 0 0 0 0 0 0 4 238 457 509 111 148 164 312 224 225 17 4 6 81 74 47 21 19
0 0 0 0 0 0 0 1 1 1 1 0 1 1 1 0 0 0 0 0 0 0 0 0 0 0 0 90 337 770 107 119 245 127 1 12 240 36 53 28 168 134 56 5 12
3 2 1 0 0 0 0 0 0 0 1 1 0 1 1 0 0 0 0 0 0 0 0 0 0 0 1 186 461 542 410 500 320 99 10 170 232 346 92 97 93 230 7 0 16
1 0 2 2 1 0 0 0 0 0 0 0 0 0 1 0 0 0 0 0 0 0 0 0 0 0 8 114 105 411 486 398 293 62 62 0 33 215 184 183 158 59 1 10 23
0 0 0 2 2 1 0 0 0 0 0 0 0 0 0 0 0 0 9 0 0 0 0 0 0 0 15 82 382 489 498 254 481 51 0 0 0 135 218 222 85 8 58 20 43
0 3 2 0 2 3 1 2 1 0 0 0 0 0 0 0 0 0 0 0 0 0 0 0 0 5 3 28 41 438 388 581 449 172 24 0 159 46 215 80 35 46 54 97 95
1 1 1 0 0 1 2 2 1 0 0 0 0 0 0 0 0 0 0 0 0 0 0 0 0 9 7 7 113 531 485 741 741 700 463 64 164 185 167 311 52 63 84 198 124
1 0 0 0 0 0 2 2 1 0 0 0 0 0 0 0 0 0 0 0 0 0 0 0 0 0 9 12 0 75 349 410 896 682 508 256 159 2 98 410 126 85 115 89 98
3 2 1 0 0 0 1 1 0 0 0 0 0 0 0 0 0 0 0 0 0 0 0 0 0 0 0 0 0 55 56 107 294 834 684 254 49 157 22 380 163 177 101 84 63
0 0 2 1 1 1 0 0 0 0 0 0 0 0 0 0 0 0 0 0 0 0 0 0 0 0 0 0 0 30 52 69 342 886 649 376 359 2 159 383 521 473 254 158 68
2 4 2 0 0 0 0 0 0 0 0 0 0 0 0 0 0 0 0 0 0 0 0 0 0 0 0 0 1 1 7 197 599 455 308 517 453 726 388 249 616 177 180 182 173
5 1 0 0 0 0 0 0 0 0 0 0 0 0 0 0 0 0 0 0 0 0 0 0 0 0 0 0 0 3 0 0 139 252 58 58 305 588 857 278 158 2 16 313 174
4 0 0 0 0 0 0 0 0 0 0 0 0 0 0 0 0 0 0 0 0 0 0 0 0 0 0 0 0 0 0 10 94 410 185 39 57 54 682 725 226 211 271 271 242
0 0 0 0 0 0 0 0 0 0 0 0 0 0 0 0 0 0 0 0 0 0 0 0 0 0 0 0 0 0 0 0 4 2 4 141 8 54 311 947 603 154 269 123 336
0 0 0 0 0 0 0 0 0 0 0 0 0 0 0 0 0 0 0 0 0 0 0 0 0 0 0 0 0 0 0 0 0 0 0 122 181 20 270 413 614 533 347 523 329
0 0 0 0 0 0 0 0 0 0 0 0 0 0 0 0 0 0 0 0 0 0 0 0 0 0 0 0 0 0 0 0 0 0 0 8 46 5 161 574 694 485 413 491 215
0 0 0 0 0 0 0 0 0 0 0 0 0 0 0 0 0 0 0 0 0 0 0 0 0 0 0 0 0 0 0 0 0 0 8 100 10 175 246 35 452 585 539 406 92
0 0 0 0 0 0 0 0 0 0 0 0 0 0 0 0 0 0 0 0 0 0 0 0 0 0 0 0 0 0 0 0 10 5 2 135 182 294 349 313 216 75 143 371 468
0 0 0 0 0 0 0 0 0 0 0 0 0 0 0 0 0 0 0 0 0 0 0 1 0 0 0 0 0 0 0 0 0 0 5 66 381 315 37 0 0 143 523 498 557
0 0 0 0 0 0 0 0 0 0 0 0 0 0 0 0 0 0 0 0 0 0 0 0 0 0 0 0 0 0 4 13 2 14 8 26 280 149 22 105 347 238 306 410 761
0 0 0 0 0 0 0 0 0 0 0 0 0 0 0 1 0 0 0 0 0 0 0 0 0 2 0 0 0 3 0 0 0 13 50 103 197 31 41 72 538 338 52 325 345
0 0 0 0 0 0 0 0 0 0 2 0 0 0 0 0 0 0 0 6 0 0 0 0 0 0 9 5 2 0 4 30 11 13 69 110 71 98 157 34 551 16 137 377 213
0 0 0 0 0 0 0 0 0 0 6 0 0 0 0 0 0 0 0 0 0 0 0 0 0 0 0 0 12 3 5 14 22 4 66 206 75 78 49 96 130 439 273 78 240
0 0 12 0 0 0 0 0 0 0 4 7 0 0 0 0 0 0 0 0 0 0 0 0 0 0 0 0 0 0 5 10 24 9 26 17 23 84 225 82 194 446 548 283 500
8 13 4 4 9 0 0 0 0 0 0 0 2 0 0 0 4 0 0 0 0 0 0 0 0 0 0 0 0 0 0 0 16 0 0 25 0 142 62 39 535 765 1250 772 546
46 23 2 0 0 0 0 0 0 4 0 0 15 0 1 0 4 15 6 0 0 0 0 0 0 0 0 0 0 0 0 0 5 0 0 8 83 377 28 0 35 977 1171 1124 601
16 29 8 0 0 0 24 0 0 0 0 22 9 6 6 0 1 10 2 0 3 1 3 3 5 17 12 10 22 24 14 27 43 15 0 6 116 308 0 0 0 784 990 683 349